|
MOZ.5/SAFIR/RUBIN 5/SL-8 - Orbit
|
Livonia;
04:05:15
| Home | Info | Passes |
|
View from above orbital plane
|
View from above satellite
|
Ground track
|
The orbit data is extracted from the following two-line orbital elements,
1 28898U 05043G 13168.50832310 .00000141 00000-0 38967-4 0 5447
2 28898 097.8541 013.0882 0021624 102.9401 289.4112 14.59104453406749
| Epoch (UTC): | 17 June 2013 12:11:59 |
| Eccentricity: | 0.0021624 |
| inclination: | 97.8541° |
| perigee height: | 681 km |
| apogee height: | 711 km |
| right ascension of ascending node: | 13.0882° |
| argument of perigee: | 102.9401° |
| revolutions per day: | 14.59104453 |
| mean anomaly at epoch: | 289.4112° |
| orbit number at epoch: | 40674 |
The dashed part of the orbit path shows where the satellite is in the earth's shadow,
|
|